| time (UTC) | temp F | wind direction | speed MPH | gust MPH | rain 1hr in | rain 24hr in | rain mn in | humidity % | barometer mb |
| 20260904173013 | 75 | 179 | 0.0 | 1.0 | 0.00 | 0.00 | 0.00 | 67 | 1003.2 |
| 20260904171512 | 75 | 266 | 0.0 | 2.0 | 0.00 | 0.00 | 0.00 | 68 | 1003.1 |
| 20260904170009 | 74 | 266 | 1.0 | 3.0 | 0.00 | 0.00 | 0.00 | 70 | 1002.9 |
| 20260904164507 | 75 | 155 | 0.0 | 3.0 | 0.00 | 0.00 | 0.00 | 69 | 1002.7 |
| 20260904163004 | 75 | 273 | 0.0 | 2.0 | 0.00 | 0.00 | 0.00 | 72 | 1002.6 |
| 20260904161600 | 74 | 61 | 0.0 | 2.0 | 0.00 | 0.00 | 0.00 | 74 | 1002.6 |
| 20260904160057 | 72 | 61 | 0.0 | 1.0 | 0.00 | 0.00 | 0.00 | 77 | 1002.5 |
| 20260904154555 | 72 | 61 | 0.0 | 3.0 | 0.00 | 0.00 | 0.00 | 78 | 1002.5 |
| 20260904153107 | 71 | 58 | 0.0 | 3.0 | 0.00 | 0.00 | 0.00 | 80 | 1002.6 |
| 20260904151547 | 69 | 55 | 0.0 | 3.0 | 0.00 | 0.00 | 0.00 | 81 | 1002.5 |
| 20260904150047 | 68 | 53 | 1.0 | 3.0 | 0.00 | 0.00 | 0.00 | 82 | 1002.4 |
| 20260904144542 | 67 | 265 | 1.0 | 4.0 | 0.00 | 0.00 | 0.00 | 84 | 1002.3 |
| 20260904143039 | 66 | 260 | 0.0 | 1.0 | 0.00 | 0.00 | 0.00 | 84 | 1002.1 |
| 20260904141534 | 65 | 260 | 0.0 | 1.0 | 0.00 | 0.00 | 0.00 | 79 | 1001.9 |
| 20260904140035 | 63 | 260 | 0.0 | 0.0 | 0.00 | 0.00 | 0.00 | 78 | 1001.9 |
| 20260904134535 | 63 | 259 | 0.0 | 0.0 | 0.00 | 0.00 | 0.00 | 81 | 1001.7 |
| 20260904133030 | 63 | 260 | 0.0 | 0.0 | 0.00 | 0.00 | 0.00 | 82 | 1001.6 |
| 20260904131539 | 63 | 260 | 0.0 | 0.0 | 0.00 | 0.00 | 0.00 | 82 | 1001.7 |
| 20260904130027 | 63 | 260 | 0.0 | 0.0 | 0.00 | 0.00 | 0.00 | 82 | 1001.6 |
| 20260904124527 | 63 | 259 | 0.0 | 0.0 | 0.00 | 0.00 | 0.00 | 82 | 1001.5 |
| 20260904123026 | 63 | 260 | 0.0 | 0.0 | 0.00 | 0.00 | 0.00 | 83 | 1001.4 |
| 20260904121525 | 63 | 260 | 0.0 | 0.0 | 0.00 | 0.00 | 0.00 | 83 | 1001.3 |
| 20260904120025 | 63 | 260 | 0.0 | 0.0 | 0.00 | 0.00 | 0.00 | 83 | 1001.2 |
| 20260904114524 | 63 | 260 | 0.0 | 0.0 | 0.00 | 0.00 | 0.00 | 84 | 1001.4 |
| 20260904113036 | 63 | 260 | 0.0 | 0.0 | 0.00 | 0.00 | 0.00 | 84 | 1001.4 |
| 20260904111533 | 63 | 260 | 0.0 | 0.0 | 0.00 | 0.00 | 0.00 | 85 | 1001.4 |
| 20260904110022 | 63 | 260 | 0.0 | 0.0 | 0.00 | 0.00 | 0.00 | 86 | 1001.4 |
| 20260904104522 | 63 | 260 | 0.0 | 0.0 | 0.00 | 0.00 | 0.00 | 86 | 1001.4 |
| 20260904103021 | 63 | 260 | 0.0 | 0.0 | 0.00 | 0.00 | 0.00 | 86 | 1001.3 |
| 20260904101521 | 63 | 260 | 0.0 | 0.0 | 0.00 | 0.00 | 0.00 | 86 | 1001.2 |
| 20260904100020 | 63 | 260 | 0.0 | 0.0 | 0.00 | 0.00 | 0.00 | 86 | 1001.3 |
| 20260904094529 | 63 | 260 | 0.0 | 0.0 | 0.00 | 0.00 | 0.00 | 86 | 1001.3 |
| 20260904093018 | 63 | 260 | 0.0 | 0.0 | 0.00 | 0.00 | 0.00 | 87 | 1001.3 |
| 20260904091517 | 63 | 260 | 0.0 | 0.0 | 0.00 | 0.00 | 0.00 | 87 | 1001.3 |
| 20260904090015 | 63 | 260 | 0.0 | 0.0 | 0.00 | 0.00 | 0.00 | 87 | 1001.2 |
| 20260904084515 | 63 | 260 | 0.0 | 0.0 | 0.00 | 0.00 | 0.00 | 86 | 1001.3 |
| 20260904083022 | 63 | 260 | 0.0 | 0.0 | 0.00 | 0.00 | 0.00 | 86 | 1001.3 |
| 20260904081511 | 64 | 259 | 0.0 | 0.0 | 0.00 | 0.00 | 0.00 | 86 | 1001.4 |
| 20260904080010 | 64 | 259 | 0.0 | 0.0 | 0.00 | 0.00 | 0.00 | 86 | 1001.4 |
| 20260904074510 | 64 | 260 | 0.0 | 0.0 | 0.00 | 0.00 | 0.00 | 86 | 1001.5 |
| 20260904073007 | 64 | 260 | 0.0 | 0.0 | 0.00 | 0.00 | 0.00 | 85 | 1001.5 |
| 20260904071509 | 65 | 260 | 0.0 | 0.0 | 0.00 | 0.00 | 0.00 | 86 | 1001.4 |
| 20260904070004 | 65 | 260 | 0.0 | 0.0 | 0.00 | 0.00 | 0.00 | 85 | 1001.5 |
| 20260904064507 | 65 | 260 | 0.0 | 0.0 | 0.00 | 0.00 | 0.00 | 85 | 1001.3 |
| 20260904063003 | 65 | 260 | 0.0 | 0.0 | 0.00 | 0.00 | 0.00 | 85 | 1001.3 |
| 20260904061501 | 65 | 260 | 0.0 | 0.0 | 0.00 | 0.00 | 0.00 | 84 | 1001.3 |
| 20260904060002 | 65 | 260 | 0.0 | 0.0 | 0.00 | 0.00 | 0.00 | 84 | 1001.1 |
| 20260904054501 | 66 | 260 | 0.0 | 0.0 | 0.00 | 0.00 | 0.00 | 83 | 1001.2 |
| 20260904053001 | 66 | 260 | 0.0 | 0.0 | 0.00 | 0.00 | 0.00 | 83 | 1001.2 |
| 20260904051600 | 67 | 260 | 0.0 | 0.0 | 0.00 | 0.00 | 0.00 | 83 | 1001.3 |
| 20260904050100 | 67 | 260 | 0.0 | 0.0 | 0.00 | 0.00 | 0.00 | 82 | 1001.3 |
| 20260904044600 | 68 | 259 | 0.0 | 2.0 | 0.00 | 0.00 | 0.00 | 82 | 1001.3 |
| 20260904043104 | 68 | 260 | 0.0 | 1.0 | 0.00 | 0.00 | 0.00 | 82 | 1001.1 |
| 20260904041605 | 68 | 261 | 0.0 | 1.0 | 0.00 | 0.00 | 0.00 | 82 | 1001.1 |
| 20260904040058 | 68 | 263 | 1.0 | 5.0 | 0.00 | 0.00 | 0.00 | 83 | 1000.9 |
| 20260904034557 | 68 | 259 | 0.0 | 3.0 | 0.00 | 0.00 | 0.00 | 82 | 1000.8 |
| 20260904033057 | 68 | 254 | 0.0 | 4.0 | 0.00 | 0.00 | 0.00 | 82 | 1000.7 |
| 20260904031603 | 68 | 262 | 0.0 | 4.0 | 0.00 | 0.00 | 0.00 | 82 | 1000.6 |
| 20260904030056 | 69 | 249 | 0.0 | 4.0 | 0.00 | 0.00 | 0.00 | 82 | 1000.5 |
| 20260904024601 | 69 | 241 | 0.0 | 7.0 | 0.00 | 0.00 | 0.00 | 82 | 1000.5 |
| 20260904023055 | 70 | 248 | 2.0 | 6.0 | 0.00 | 0.00 | 0.00 | 80 | 1000.4 |
| 20260904021555 | 71 | 245 | 0.0 | 2.0 | 0.00 | 0.00 | 0.00 | 78 | 1000.4 |
| 20260904020100 | 71 | 245 | 0.0 | 5.0 | 0.00 | 0.00 | 0.00 | 77 | 1000.4 |
| 20260904014617 | 72 | 249 | 0.0 | 4.0 | 0.00 | 0.00 | 0.00 | 75 | 1000.5 |
| 20260904013116 | 72 | 252 | 1.0 | 6.0 | 0.00 | 0.00 | 0.00 | 74 | 1000.6 |
| 20260904011552 | 73 | 256 | 0.0 | 5.0 | 0.00 | 0.00 | 0.00 | 72 | 1000.5 |
| 20260904010105 | 74 | 242 | 0.0 | 1.0 | 0.00 | 0.00 | 0.00 | 71 | 1000.5 |
| 20260904004551 | 75 | 192 | 0.0 | 4.0 | 0.00 | 0.00 | 0.00 | 71 | 1000.6 |
| 20260904003057 | 75 | 213 | 0.0 | 6.0 | 0.00 | 0.00 | 0.00 | 71 | 1000.6 |
| 20260904001550 | 76 | 236 | 2.0 | 8.0 | 0.00 | 0.00 | 0.00 | 70 | 1000.7 |
| 20260904000050 | 76 | 189 | 0.0 | 4.0 | 0.00 | 0.00 | 0.00 | 71 | 1000.8 |
| 20260903234548 | 76 | 244 | 5.0 | 9.0 | 0.00 | 0.00 | 0.00 | 70 | 1000.9 |
| 20260903233050 | 76 | 249 | 0.0 | 6.0 | 0.00 | 0.00 | 0.00 | 72 | 1000.9 |
| 20260903231546 | 76 | 250 | 1.0 | 9.0 | 0.00 | 0.00 | 0.00 | 72 | 1001.1 |
| 20260903230044 | 76 | 248 | 1.0 | 8.0 | 0.00 | 0.00 | 0.00 | 70 | 1001.1 |
| 20260903224543 | 76 | 180 | 0.0 | 8.0 | 0.00 | 0.00 | 0.00 | 70 | 1001.3 |
| 20260903223048 | 75 | 171 | 0.0 | 10.0 | 0.00 | 0.00 | 0.00 | 72 | 1001.4 |
| 20260903221540 | 76 | 197 | 1.0 | 6.0 | 0.00 | 0.00 | 0.00 | 70 | 1001.6 |
| 20260903220038 | 76 | 250 | 4.0 | 10.0 | 0.00 | 0.00 | 0.00 | 70 | 1001.7 |
| 20260903214541 | 76 | 255 | 1.0 | 8.0 | 0.00 | 0.00 | 0.00 | 70 | 1001.8 |
| 20260903213043 | 76 | 244 | 0.0 | 10.0 | 0.00 | 0.00 | 0.00 | 71 | 1001.8 |
| 20260903211541 | 77 | 245 | 3.0 | 7.0 | 0.00 | 0.00 | 0.00 | 69 | 1001.8 |
| 20260903210035 | 78 | 246 | 2.0 | 8.0 | 0.00 | 0.00 | 0.00 | 68 | 1002.0 |
| 20260903204533 | 79 | 184 | 0.0 | 6.0 | 0.00 | 0.00 | 0.00 | 66 | 1002.1 |
| 20260903203033 | 79 | 254 | 0.0 | 8.0 | 0.00 | 0.00 | 0.00 | 66 | 1002.0 |
| 20260903201531 | 79 | 181 | 0.0 | 3.0 | 0.00 | 0.00 | 0.00 | 65 | 1002.0 |
| 20260903200030 | 79 | 236 | 0.0 | 3.0 | 0.00 | 0.00 | 0.00 | 65 | 1002.1 |
| 20260903194529 | 79 | 236 | 1.0 | 10.0 | 0.00 | 0.00 | 0.00 | 66 | 1002.2 |
| 20260903193027 | 78 | 261 | 3.0 | 7.0 | 0.00 | 0.00 | 0.00 | 66 | 1002.5 |
| 20260903191528 | 78 | 234 | 0.0 | 7.0 | 0.00 | 0.00 | 0.00 | 66 | 1002.7 |
| 20260903190024 | 79 | 241 | 3.0 | 7.0 | 0.00 | 0.00 | 0.00 | 63 | 1002.9 |
| 20260903184522 | 79 | 146 | 0.0 | 3.0 | 0.00 | 0.00 | 0.00 | 62 | 1003.0 |
| 20260903183020 | 78 | 80 | 1.0 | 5.0 | 0.00 | 0.00 | 0.00 | 62 | 1003.2 |
| 20260903181516 | 77 | 132 | 0.0 | 4.0 | 0.00 | 0.00 | 0.00 | 64 | 1003.4 |
| 20260903180017 | 77 | 67 | 1.0 | 4.0 | 0.00 | 0.00 | 0.00 | 64 | 1003.4 |
| 20260903174512 | 76 | 150 | 0.0 | 5.0 | 0.00 | 0.00 | 0.00 | 66 | 1003.5 |